TimeEST,TemperatureF,Dew PointF,Humidity,Sea Level PressureIn,VisibilityMPH,Wind Direction,Wind SpeedMPH,Gust SpeedMPH,PrecipitationIn,Events,Conditions,WindDirDegrees,DateUTC
12:53 AM,71.1,57.0,61,30.17,10.0,East,8.1,-,N/A,,Mostly Cloudy,100,2013-02-10 05:53:00
1:53 AM,70.0,57.9,65,30.17,10.0,East,12.7,-,N/A,,Partly Cloudy,100,2013-02-10 06:53:00
2:53 AM,71.1,61.0,70,30.16,10.0,East,13.8,20.7,N/A,,Mostly Cloudy,80,2013-02-10 07:53:00
3:53 AM,71.1,60.1,68,30.16,10.0,East,17.3,24.2,N/A,,Mostly Cloudy,80,2013-02-10 08:53:00
4:53 AM,71.1,61.0,70,30.16,10.0,East,13.8,-,N/A,,Mostly Cloudy,90,2013-02-10 09:53:00
5:53 AM,68.0,63.0,84,30.18,10.0,SE,11.5,-,0.00,Rain,Light Rain,140,2013-02-10 10:53:00
6:30 AM,69.8,62.6,78,30.18,10.0,East,13.8,-,0.02,Rain,Light Rain,80,2013-02-10 11:30:00
6:53 AM,69.1,62.1,78,30.19,10.0,East,12.7,-,0.06,,Mostly Cloudy,80,2013-02-10 11:53:00
7:53 AM,70.0,61.0,73,30.21,10.0,East,13.8,-,N/A,,Mostly Cloudy,100,2013-02-10 12:53:00
8:08 AM,71.6,60.8,69,30.21,10.0,East,16.1,23.0,N/A,,Mostly Cloudy,90,2013-02-10 13:08:00
8:53 AM,72.0,61.0,68,30.22,10.0,East,18.4,25.3,N/A,,Mostly Cloudy,100,2013-02-10 13:53:00
9:53 AM,72.0,59.0,64,30.25,10.0,East,18.4,26.5,N/A,,Mostly Cloudy,100,2013-02-10 14:53:00
10:53 AM,73.0,57.0,57,30.27,10.0,East,16.1,-,N/A,,Mostly Cloudy,90,2013-02-10 15:53:00
11:53 AM,73.9,59.0,59,30.26,10.0,East,18.4,24.2,N/A,,Mostly Cloudy,90,2013-02-10 16:53:00
12:53 PM,73.9,59.0,59,30.25,10.0,East,17.3,-,N/A,,Mostly Cloudy,100,2013-02-10 17:53:00
1:53 PM,73.0,59.0,61,30.22,10.0,East,17.3,-,N/A,,Mostly Cloudy,100,2013-02-10 18:53:00
2:53 PM,73.9,57.9,57,30.20,10.0,East,17.3,-,N/A,,Mostly Cloudy,100,2013-02-10 19:53:00
3:53 PM,73.0,59.0,61,30.19,10.0,East,18.4,-,N/A,,Mostly Cloudy,100,2013-02-10 20:53:00
4:53 PM,73.0,59.0,61,30.19,10.0,ESE,16.1,-,N/A,,Mostly Cloudy,110,2013-02-10 21:53:00
5:53 PM,73.0,59.0,61,30.19,10.0,ESE,15.0,-,N/A,,Mostly Cloudy,110,2013-02-10 22:53:00
6:53 PM,72.0,59.0,64,30.19,10.0,ESE,15.0,-,N/A,,Mostly Cloudy,120,2013-02-10 23:53:00
7:53 PM,72.0,59.0,64,30.21,10.0,ESE,15.0,-,N/A,,Mostly Cloudy,110,2013-02-11 00:53:00
8:53 PM,72.0,59.0,64,30.22,10.0,ESE,15.0,-,N/A,,Mostly Cloudy,110,2013-02-11 01:53:00
9:53 PM,71.1,59.0,66,30.22,10.0,ESE,15.0,-,N/A,,Scattered Clouds,110,2013-02-11 02:53:00
10:53 PM,72.0,59.0,64,30.20,10.0,ESE,16.1,-,N/A,,Mostly Cloudy,110,2013-02-11 03:53:00
11:53 PM,71.1,60.1,68,30.20,10.0,SE,11.5,-,N/A,,Scattered Clouds,140,2013-02-11 04:53:00